This is the latest recevied weather packets stored in our database for station/object DM8MH-13. If no packets are shown the sender has not sent any weather packets the latest 10 day(s).
| Time | Temp. | Humidity | Pressure | Rain* | Wind** | Luminosity | Snow |
|---|---|---|---|---|---|---|---|
| 1788635470 | 17.78° C | 66% | 1022.3 hPa | 0 mm | - | 0 W/m² | - |
| 1788634870 | 17.78° C | 65% | 1021.8 hPa | 0 mm | - | 0 W/m² | - |
| 1788634271 | 18.33° C | 65% | 1021.9 hPa | 0 mm | - | 0 W/m² | - |
| 1788633670 | 18.33° C | 64% | 1021.7 hPa | 0 mm | - | 0 W/m² | - |
| 1788633072 | 18.33° C | 63% | 1021.7 hPa | 0 mm | - | 0 W/m² | - |
| 1788632472 | 18.33° C | 63% | 1021.4 hPa | 0 mm | - | 0 W/m² | - |
| 1788631870 | 18.89° C | 62% | 1021.2 hPa | 0 mm | - | 0 W/m² | - |
| 1788631270 | 18.89° C | 62% | 1021.1 hPa | 0 mm | - | 0 W/m² | - |
| 1788630671 | 18.89° C | 63% | 1021.1 hPa | 0 mm | - | 0 W/m² | - |
| 1788630070 | 19.44° C | 62% | 1021 hPa | 0 mm | - | 7 W/m² | - |
| 1788629471 | 19.44° C | 61% | 1020.8 hPa | 0 mm | - | 11 W/m² | - |
| 1788628875 | 19.44° C | 60% | 1020.6 hPa | 0 mm | - | 27 W/m² | - |
| 1788628270 | 20° C | 59% | 1020.7 hPa | 0 mm | - | 26 W/m² | - |
| 1788627670 | 20° C | 59% | 1020.7 hPa | 0 mm | - | 33 W/m² | - |
| 1788627071 | 20° C | 58% | 1020.6 hPa | 0 mm | - | 46 W/m² | - |
| 1788626471 | 20.56° C | 57% | 1020.4 hPa | 0 mm | - | 129 W/m² | - |
| 1788625871 | 20.56° C | 57% | 1020.1 hPa | 0 mm | - | 148 W/m² | - |
| 1788625271 | 20.56° C | 57% | 1019.9 hPa | 0 mm | - | 62 W/m² | - |
| 1788624670 | 20.56° C | 56% | 1019.8 hPa | 0 mm | - | 50 W/m² | - |
| 1788624070 | 20.56° C | 55% | 1019.7 hPa | 0 mm | - | 45 W/m² | - |
| 1788623470 | 21.11° C | 54% | 1019.6 hPa | 0 mm | - | 109 W/m² | - |
| 1788622870 | 20.56° C | 54% | 1019.5 hPa | 0 mm | - | 194 W/m² | - |
| 1788622271 | 20.56° C | 54% | 1019.3 hPa | 0 mm | - | 25 W/m² | - |
| 1788621674 | 20.56° C | 53% | 1019.1 hPa | 0 mm | - | 31 W/m² | - |
| 1788621070 | 21.11° C | 52% | 1018.7 hPa | 0 mm | - | 90 W/m² | - |
* Rain latest hour (hover to see other rain measurements)
** Current wind speed in m/s (hover to see current wind gust speed)